Location: Bear Valley Community Church - Hurst
(32.8460°N, 97.1828°W)
Time: 07:52:59
(UTC+00:00)

Cosmos 1328 Rocket - Pass Details

Date: 03 July 2022
Orbit: 600 x 627 km, 82.5° (Epoch: 14 August)

Event Time Altitude Azimuth Distance (km) Brightness Sun altitude
Rises 08:24:37 0° 4° (N) 2,900 8.0 -28.2°
Reaches altitude 10° 08:27:02 10° 14° (NNE) 1,986 7.0 -27.9°
Maximum altitude 08:31:03 34° 80° (E) 1,017 4.9 -27.5°
Enters shadow 08:31:31 33° 94° (E) 1,036 4.8 -27.5°
